This is the latest recevied weather packets stored in our database for station/object KD1KE. If no packets are shown the sender has not sent any weather packets the latest 1 day(s).
| Time | Temp. | Humidity | Pressure | Rain* | Wind** | Luminosity | Snow |
|---|---|---|---|---|---|---|---|
| 1778026722 | 17.22° C | 68% | 1006.5 hPa | 0 mm | - | - | - |
| 1778026181 | 17.22° C | 67% | 1006.7 hPa | 0 mm | - | - | - |
| 1778025101 | 17.78° C | 67% | 1006.9 hPa | 0 mm | - | - | - |
| 1778022612 | 17.22° C | 67% | 1006.5 hPa | 0 mm | - | - | - |
| 1778021951 | 17.78° C | 66% | 1004.1 hPa | 0 mm | - | - | - |
| 1778020240 | 18.33° C | 63% | 1003.6 hPa | 0 mm | - | - | - |
| 1778018621 | 18.89° C | 62% | 1003.3 hPa | 0 mm | - | - | - |
| 1778017332 | 20° C | 60% | 1003.2 hPa | 0 mm | - | - | - |
| 1778016460 | 20.56° C | 59% | 1003.2 hPa | 0 mm | - | - | - |
| 1778013759 | 21.67° C | 57% | 1003.3 hPa | 0 mm | - | - | - |
| 1778013372 | 21.67° C | 56% | 1003.3 hPa | 0 mm | - | - | - |
| 1778012051 | 22.22° C | 55% | 1003.4 hPa | 0 mm | - | - | - |
| 1778011599 | 22.78° C | 54% | 1003.5 hPa | 0 mm | - | - | - |
| 1778009980 | 22.78° C | 54% | 1003.5 hPa | 0 mm | - | - | - |
| 1778008091 | 23.33° C | 53% | 1004 hPa | 0 mm | - | - | - |
| 1778007280 | 23.33° C | 53% | 1004.2 hPa | 0 mm | - | - | - |
| 1778005163 | 23.33° C | 54% | 1004.4 hPa | 0 mm | - | - | - |
| 1778005120 | 23.33° C | 54% | 1004.4 hPa | 0 mm | - | - | - |
| 1778004579 | 22.78° C | 55% | 1004.3 hPa | 0 mm | - | - | - |
| 1778003470 | 22.22° C | 54% | 1004.6 hPa | 0 mm | - | - | - |
| 1778001879 | 21.67° C | 55% | 1005.1 hPa | 0 mm | - | - | - |
| 1778000797 | 22.22° C | 55% | 1005.2 hPa | 0 mm | - | - | - |
* Rain latest hour (hover to see other rain measurements)
** Current wind speed in m/s (hover to see current wind gust speed)